Regional Weather Roundup
Issued by NWS

Home | Current Version | Previous Version | Graphics & Text | Print | Product List | Glossary On
Versions: 1 2 3 4 5 6 7 8 9 10 11 12 13 14 15 16 17 18 19 20 21 22 23 24 25 26 27 28 29 30 31 32 33 34 35 36 37 38 39 40 41 42 43 44 45 46 47 48 49 50
414
ASUS43 KDTX 231510
RWRMI
MICHIGAN HOURLY REGIONAL WEATHER ROUNDUP
NATIONAL WEATHER SERVICE DETROIT/PONTIAC MI
1100 AM EDT TUE AUG 23 2016

NOTE: "FAIR" INDICATES FEW OR NO CLOUDS BELOW 12,000 FEET WITH NO
SIGNIFICANT WEATHER AND/OR OBSTRUCTION TO VISIBILITY.

MIZ047>049-052>055-059>063-066>070-074>076-081>083-231600-
SOUTHEAST LOWER MICHIGAN

CITY           SKY/WX    TMP DP  RH WIND       PRES   REMARKS
ADRIAN         SUNNY     73  60  63 SW8       30.29S
ALMA           SUNNY     74  65  74 SW10      30.24S
ANN ARBOR      SUNNY     73  60  63 S8        30.28R
BAD AXE        SUNNY     73  59  61 W10       30.24R
CARO           SUNNY     74  60  61 SW8       30.23R
DETROIT CITY   SUNNY     75  58  55 SW10      30.27F
DETROIT        MOSUNNY   75  57  53 S12       30.28S
FLINT          SUNNY     76  58  53 SW8       30.26R
GROSSE ILE     SUNNY     74  60  61 SW7       30.27S
HILLSDALE      SUNNY     72  59  63 S7        30.28S
HOWELL         SUNNY     74  58  57 S12       30.27S

CITY           SKY/WX    TMP DP  RH WIND       PRES   REMARKS
JACKSON        SUNNY     74  56  53 SW12      30.27S
LAMBERTVILLE   SUNNY     76  58  52 S3        30.29R
LANSING        SUNNY     74  58  57 SW14      30.26S
LAPEER         FAIR      75  55  50 S15       30.25S
MASON          SUNNY     73  59  61 SW5       30.27R
MONROE         SUNNY     74  61  62 SW7       30.28S
MT. CLEMENS    MOSUNNY   77  57  50 S12       30.24F
PONTIAC        PTSUNNY   73  57  57 S9        30.26S
PORT HURON     SUNNY     73  59  60 SW7       30.26R
TRI CITIES     SUNNY     74  61  63 SW14      30.22R
MIDLAND        FAIR      74  59  59 SW13G21   30.21R
TROY           SUNNY     76  55  47 S9        30.28F
SAGINAW HB     SUNNY     73  61  64 SW12G18   30.21S
$$
MIZ043>046-050>051-056>058-064>065-071>073-077>080-231600-
SOUTHWEST LOWER MICHIGAN

CITY           SKY/WX    TMP DP  RH WIND       PRES   REMARKS
BATTLE CREEK   SUNNY     71  61  70 SW12      30.27S
BENTON HARBOR  SUNNY     74  60  61 S12       30.24S
BIG RAPIDS     MOSUNNY   74  65  71 SW12      30.22R
COLDWATER      SUNNY     73  59  62 SW7       30.28S
FREMONT        FAIR      74  64  70 SW9       30.22S
HOLLAND        SUNNY     74  62  66 S9        30.24S
GRAND RAPIDS   MOSUNNY   74  59  59 SW12      30.25R
IONIA          FAIR      73  58  60 SW9       30.24S
KALAMAZOO      SUNNY     73  59  61 S14       30.25S
LUDINGTON      SUNNY     75  65  70 SW13      30.18S
MARSHALL       SUNNY     73  59  60 S9        30.27R
MOUNT PLEASANT SUNNY     76  62  62 SW12      30.21S
MUSKEGON       PTSUNNY   76  67  73 S17G23    30.22R
SOUTH HAVEN    SUNNY     76  61  60 S9        30.24S
$$
MIZ016>042-231600-
NORTHERN LOWER MICHIGAN

CITY           SKY/WX    TMP DP  RH WIND       PRES   REMARKS
ALPENA         SUNNY     76  59  55 SW14G21   30.17S
BEAVER ISLAND  SUNNY     75  65  70 SW16G24   30.11S
BELLAIRE       SUNNY     76  61  59 SW8       30.16S
CADILLAC       SUNNY     74  61  63 SW12      30.20S
CHARLEVOIX     SUNNY     75  62  63 SW12G21   30.17S
FRANKFORT      SUNNY     75  64  69 S12G20    30.16S
GAYLORD        SUNNY     74  58  57 SW20      30.19R
GRAYLING       SUNNY     75  61  60 SW12G21   30.20R
HARBOR SPRINGS SUNNY     75  63  65 SW13G20   30.14S
HOUGHTON LAKE  SUNNY     73  60  63 SW12      30.22R
MANISTEE       SUNNY     76  63  64 SW8G17    30.17S
OSCODA         SUNNY     75  60  58 SW18      30.19S
PELLSTON       SUNNY     77  61  57 W9G22     30.13R
ROGERS CITY    SUNNY     77  60  56 W8G20     30.15S
TRAVERSE CITY  MOSUNNY   76  60  57 W10G20    30.15R
$$
MIZ007>008-015-231600-
EASTERN UPPER MICHIGAN

CITY           SKY/WX    TMP DP  RH WIND       PRES   REMARKS
KINROSS        MOSUNNY   75  63  66 W13G25    30.09S
MACKINAC ISLAN SUNNY     74  62  65 SW12G26   30.10S
NEWBERRY       SUNNY     74  63  69 SW16G24   30.08S
S. S. MARIE    SUNNY     77  63  61 SW12      30.07S
$$
MIZ004>006-011>014-085-231600-
CENTRAL UPPER MICHIGAN

CITY           SKY/WX    TMP DP  RH WIND       PRES   REMARKS
MANISTIQUE     SUNNY     71  63  76 SW10      30.08
ESCANABA       SUNNY     72  65  78 S9        30.08S
MENOMINEE      SUNNY    N/A N/A N/A SW10G16   30.11F
SAWYER-GWINN   SUNNY     70  61  73 SW13      30.06F
$$
MIZ001>003-009>011-084-231600-
WESTERN UPPER MICHIGAN

CITY           SKY/WX    TMP DP  RH WIND       PRES   REMARKS
IRON MOUNTAIN  SUNNY     72  61  68 SW7       30.07F
HOUGHTON       CLOUDY    75  60  59 W9G16     29.98S
COPPER HARBOR    N/A     76  63  64 VRB6      29.96R
IRONWOOD       SUNNY     74  62  66 SW15G22   29.98F
$$

ABBREVIATIONS USED IN REMARKS
   TC - TEMPERATURE IN CELSIUS
  WCI - WIND CHILL INDEX
   HX - HEAT INDEX
  VSB - VISIBILITY





USA.gov is the U.S. government's official web portal to all federal, state and local government web resources and services.